FW5313 Weather Reports


Display with metric or nautical units.
time (UTC)temp
F
wind
direction
speed
MPH
gust
MPH
rain 1hr
in
rain 24hr
in
rain mn
in
humidity
%
barometer
mb
20260901115045 54 0 0.0 0.0 0.02 0.03 0.03 95 1018.3
20260901114556 54 0 0.0 0.0 0.02 0.03 0.03 94 1018.2
20260901114047 54 0 0.0 0.0 0.03 0.03 0.03 94 1018.1
20260901113545 54 0 0.0 0.0 0.03 0.03 0.03 94 1018.0
20260901113104 55 0 0.0 0.0 0.03 0.03 0.03 93 1017.9
20260901112545 55 0 0.0 0.0 0.02 0.02 0.02 93 1018.0
20260901112046 55 0 0.0 0.0 0.02 0.02 0.02 93 1018.2
20260901111559 55 0 0.0 0.0 0.02 0.02 0.02 92 1018.3
20260901111045 55 0 0.0 0.0 0.02 0.02 0.02 91 1018.3
20260901110545 55 0 0.0 0.0 0.01 0.01 0.01 91 1018.0
20260901110059 55 0 0.0 1.0 0.01 0.01 0.01 91 1018.0
20260901105544 56 0 0.0 1.0 0.01 0.01 0.01 90 1018.0
20260901105048 56 0 0.0 1.0 0.01 0.01 0.01 89 1017.9
20260901104605 56 0 0.0 1.0 0.01 0.01 0.01 88 1018.0
20260901104045 56 0 0.0 1.0 0.00 0.00 0.00 87 1017.9
20260901103545 57 0 0.0 1.0 0.00 0.00 0.00 86 1017.9
20260901103101 57 0 0.0 1.0 0.00 0.00 0.00 83 1017.8
20260901102546 57 0 0.0 1.0 0.00 0.00 0.00 82 1017.8
20260901102046 58 0 0.0 0.0 0.00 0.00 0.00 82 1017.7
20260901101609 58 0 0.0 0.0 0.00 0.00 0.00 79 1017.6
20260901101045 58 0 0.0 0.0 0.00 0.00 0.00 79 1017.5
20260901100549 58 0 0.0 0.0 0.00 0.00 0.00 80 1017.6
20260901100104 58 0 0.0 0.0 0.00 0.00 0.00 81 1017.6
20260901095545 58 0 0.0 0.0 0.00 0.00 0.00 80 1017.5
20260901095045 58 0 0.0 0.0 0.00 0.00 0.00 81 1017.6
20260901094600 58 0 0.0 0.0 0.00 0.00 0.00 80 1017.5
20260901094045 59 0 0.0 1.0 0.00 0.00 0.00 82 1017.6
20260901093544 59 0 0.0 1.0 0.00 0.00 0.00 79 1017.5
20260901093109 59 0 0.0 1.0 0.00 0.00 0.00 79 1017.6
20260901092544 59 0 0.0 0.0 0.00 0.00 0.00 75 1017.4
20260901092044 59 0 0.0 0.0 0.00 0.00 0.00 74 1017.4
20260901091558 59 0 0.0 0.0 0.00 0.00 0.00 75 1017.3
20260901091045 59 0 0.0 0.0 0.00 0.00 0.00 79 1017.4
20260901090545 59 0 0.0 0.0 0.00 0.00 0.00 79 1017.5
20260901090059 59 0 0.0 0.0 0.00 0.00 0.00 79 1017.6
20260901085545 58 0 0.0 0.0 0.00 0.00 0.00 80 1017.6
20260901085048 58 0 0.0 0.0 0.00 0.00 0.00 77 1017.6
20260901084558 58 0 0.0 0.0 0.00 0.00 0.00 77 1017.7
20260901084045 58 0 0.0 0.0 0.00 0.00 0.00 77 1017.6
20260901083545 58 0 0.0 0.0 0.00 0.00 0.00 78 1017.4
20260901083101 58 0 0.0 0.0 0.00 0.00 0.00 78 1017.4
20260901082545 59 0 0.0 0.0 0.00 0.00 0.00 78 1017.5
20260901082048 59 0 0.0 0.0 0.00 0.00 0.00 77 1017.4
20260901081603 59 0 0.0 0.0 0.00 0.00 0.00 80 1017.4
20260901081044 59 0 0.0 0.0 0.00 0.00 0.00 77 1017.4
20260901080546 59 0 0.0 0.0 0.00 0.00 0.00 79 1017.5
20260901080211 59 0 0.0 0.0 0.00 0.00 0.00 78 1017.7
20260901075545 59 0 0.0 0.0 0.00 0.00 0.00 78 1017.8
20260901075046 59 0 0.0 0.0 0.00 0.00 0.00 77 1017.7
20260901074559 59 0 0.0 0.0 0.00 0.00 0.00 77 1017.6
20260901074044 59 0 0.0 0.0 0.00 0.00 0.00 77 1017.7
20260901073545 59 0 0.0 0.0 0.00 0.00 0.00 77 1017.7
20260901073102 59 0 0.0 0.0 0.00 0.00 0.00 78 1017.8
20260901072546 59 0 0.0 0.0 0.00 0.00 0.00 80 1017.7
20260901072047 59 0 0.0 0.0 0.00 0.00 0.00 79 1017.7
20260901071603 59 0 0.0 0.0 0.00 0.00 0.00 78 1017.6
20260901071046 59 0 0.0 0.0 0.00 0.00 0.00 78 1017.7
20260901070545 59 0 0.0 0.0 0.00 0.00 0.00 81 1017.6
20260901070134 59 0 0.0 0.0 0.00 0.00 0.00 80 1017.7
20260901065546 59 0 0.0 0.0 0.00 0.00 0.00 80 1017.8
20260901065045 60 0 0.0 0.0 0.00 0.00 0.00 82 1017.9
20260901064612 60 0 0.0 0.0 0.00 0.00 0.00 78 1017.9
20260901064045 60 0 0.0 0.0 0.00 0.00 0.00 79 1018.0
20260901063546 60 0 0.0 0.0 0.00 0.00 0.00 78 1018.0
20260901063108 60 0 0.0 0.0 0.00 0.00 0.00 77 1018.1
20260901062549 60 0 0.0 0.0 0.00 0.00 0.00 77 1018.1
20260901062044 59 0 0.0 0.0 0.00 0.00 0.00 77 1018.0
20260901061611 59 0 0.0 0.0 0.00 0.00 0.00 77 1018.1
20260901061045 59 0 0.0 0.0 0.00 0.00 0.00 78 1018.3
20260901060547 59 0 0.0 0.0 0.00 0.00 0.00 78 1018.4
20260901055544 59 0 0.0 0.0 0.00 0.00 0.00 78 1018.4
20260901055045 60 0 0.0 0.0 0.00 0.00 0.00 77 1018.1
20260901054609 60 0 0.0 0.0 0.00 0.00 0.00 75 1018.3
20260901054046 60 0 0.0 0.0 0.00 0.00 0.00 77 1018.3
20260901053548 60 0 0.0 0.0 0.00 0.00 0.00 76 1018.4
20260901053108 60 0 0.0 0.0 0.00 0.00 0.00 79 1018.4
20260901052545 60 0 0.0 0.0 0.00 0.00 0.00 78 1018.5
20260901052045 60 0 0.0 0.0 0.00 0.00 0.00 76 1018.6
20260901051600 60 0 0.0 0.0 0.00 0.00 0.00 77 1018.5
20260901051046 59 0 0.0 0.0 0.00 0.00 0.00 77 1018.4
20260901050547 59 0 0.0 0.0 0.00 0.00 0.00 76 1018.5
20260901050100 59 0 0.0 0.0 0.00 0.00 0.00 77 1018.5
20260901045546 59 0 0.0 0.0 0.00 0.00 0.00 76 1018.5
20260901045046 59 0 0.0 0.0 0.00 0.00 0.00 77 1018.6
20260901044623 59 0 0.0 0.0 0.00 0.00 0.00 78 1018.6
20260901044045 59 0 0.0 0.0 0.00 0.00 0.00 76 1018.8
20260901043546 59 0 0.0 0.0 0.00 0.00 0.00 76 1018.7
20260901043055 59 0 0.0 0.0 0.00 0.00 0.00 78 1018.6
20260901042545 59 0 0.0 0.0 0.00 0.00 0.00 77 1018.6
20260901042044 59 0 0.0 0.0 0.00 0.00 0.00 77 1018.6
20260901041600 59 0 0.0 0.0 0.00 0.00 0.00 79 1018.6
20260901041044 59 0 0.0 1.0 0.00 0.00 0.00 80 1018.5
20260901040545 59 0 0.0 1.0 0.00 0.00 0.00 81 1018.4
20260901040108 59 0 0.0 0.0 0.00 0.00 0.00 81 1018.4
20260901035548 59 0 0.0 0.0 0.00 0.00 0.00 81 1018.4
20260901035046 59 0 0.0 0.0 0.00 0.00 0.00 81 1018.5
20260901034601 59 0 0.0 0.0 0.00 0.00 0.00 80 1018.4
20260901034046 59 0 0.0 0.0 0.00 0.00 0.00 81 1018.3
20260901033545 60 0 0.0 0.0 0.00 0.00 0.00 81 1018.3
20260901033059 60 0 0.0 0.0 0.00 0.00 0.00 81 1018.0
20260901032548 61 0 0.0 0.0 0.00 0.00 0.00 80 1018.0
20260901032045 61 0 0.0 0.0 0.00 0.00 0.00 79 1018.0
20260901031601 61 0 0.0 0.0 0.00 0.00 0.00 75 1018.2
20260901031044 61 0 0.0 1.0 0.00 0.00 0.00 77 1018.2
20260901030546 62 0 0.0 1.0 0.00 0.00 0.00 78 1018.2
20260901030103 62 0 0.0 0.0 0.00 0.00 0.00 80 1018.1
20260901025546 62 0 0.0 0.0 0.00 0.00 0.00 80 1018.2
20260901025046 62 0 0.0 0.0 0.00 0.00 0.00 80 1018.5
20260901024603 62 0 0.0 0.0 0.00 0.00 0.00 81 1018.4
20260901024045 62 0 0.0 0.0 0.00 0.00 0.00 79 1018.5
20260901023545 61 0 0.0 0.0 0.00 0.00 0.00 79 1018.3
20260901023103 61 0 0.0 0.0 0.00 0.00 0.00 79 1018.4
20260901022546 61 0 0.0 0.0 0.00 0.00 0.00 78 1018.5
20260901022046 61 0 0.0 0.0 0.00 0.00 0.00 80 1018.3
20260901021614 61 0 0.0 0.0 0.00 0.00 0.00 78 1018.4
20260901021046 61 0 0.0 1.0 0.00 0.00 0.00 79 1018.4
20260901020545 62 0 0.0 1.0 0.00 0.00 0.00 78 1018.3
20260901020104 62 80 0.0 1.0 0.00 0.00 0.00 78 1018.3
20260901015545 62 0 0.0 1.0 0.00 0.00 0.00 77 1018.1
20260901015046 62 0 0.0 1.0 0.00 0.00 0.00 77 1018.1
20260901014559 61 0 0.0 0.0 0.00 0.00 0.00 78 1018.2
20260901014046 62 0 0.0 0.0 0.00 0.00 0.00 78 1018.3
20260901013546 62 0 0.0 0.0 0.00 0.00 0.00 77 1018.2
20260901013121 62 0 0.0 1.0 0.00 0.00 0.00 78 1018.0
20260901012544 62 0 0.0 1.0 0.00 0.00 0.00 77 1018.1
20260901012045 62 80 0.0 1.0 0.00 0.00 0.00 77 1018.2
20260901011600 62 0 0.0 1.0 0.00 0.00 0.00 77 1018.2
20260901011045 62 0 0.0 1.0 0.00 0.00 0.00 78 1018.2
20260901010548 62 0 0.0 1.0 0.00 0.00 0.00 78 1018.3
20260901010057 62 0 0.0 1.0 0.00 0.00 0.00 77 1018.3
20260901005546 62 0 0.0 1.0 0.00 0.00 0.00 76 1018.3
20260901005046 62 80 0.0 1.0 0.00 0.00 0.00 77 1018.3
20260901004603 62 0 0.0 0.0 0.00 0.00 0.00 77 1018.2
20260901004045 62 0 0.0 0.0 0.00 0.00 0.00 77 1018.1
20260901003545 62 0 0.0 0.0 0.00 0.00 0.00 78 1018.1
20260901003103 62 0 0.0 1.0 0.00 0.00 0.00 77 1018.2
20260901002546 63 0 0.0 1.0 0.00 0.00 0.00 77 1018.2
20260901002046 63 0 0.0 0.0 0.00 0.00 0.00 76 1018.2
20260901001606 63 0 0.0 0.0 0.00 0.00 0.00 75 1018.4
20260901001049 63 0 0.0 0.0 0.00 0.00 0.00 75 1018.4
20260901000545 63 0 0.0 0.0 0.00 0.00 0.00 76 1018.2
20260901000100 63 0 0.0 1.0 0.00 0.00 0.00 75 1018.1
20260831235546 63 0 0.0 1.0 0.00 0.00 0.00 75 1018.0
20260831235048 63 0 0.0 0.0 0.00 0.00 0.00 75 1018.0
20260831234602 63 0 0.0 0.0 0.00 0.00 0.00 75 1018.0
20260831234046 63 0 0.0 0.0 0.00 0.00 0.00 75 1018.1
20260831233546 64 0 0.0 0.0 0.00 0.00 0.00 74 1018.2
20260831233101 64 0 0.0 0.0 0.00 0.00 0.00 74 1018.2
20260831232547 64 0 0.0 0.0 0.00 0.00 0.00 73 1018.2
20260831232044 64 0 0.0 0.0 0.00 0.00 0.00 73 1018.4
20260831231614 65 0 0.0 0.0 0.00 0.00 0.00 72 1018.4
20260831231045 65 0 0.0 0.0 0.00 0.00 0.00 71 1018.4
20260831230545 65 0 0.0 0.0 0.00 0.00 0.00 71 1018.4
20260831230108 66 0 0.0 0.0 0.00 0.00 0.00 71 1018.4
20260831225546 66 0 0.0 0.0 0.00 0.00 0.00 70 1018.4
20260831225046 66 0 0.0 0.0 0.00 0.00 0.00 71 1018.4
20260831224634 67 0 0.0 0.0 0.00 0.00 0.00 70 1018.3
20260831224046 67 0 0.0 0.0 0.00 0.00 0.00 69 1018.4
20260831223546 67 0 0.0 0.0 0.00 0.00 0.00 72 1018.4
20260831223058 67 0 0.0 0.0 0.00 0.00 0.00 71 1018.4
20260831222545 67 0 0.0 0.0 0.00 0.00 0.00 69 1018.3
20260831222045 67 0 0.0 0.0 0.00 0.00 0.00 69 1018.5
20260831221615 68 0 0.0 0.0 0.00 0.00 0.00 68 1018.5
20260831221045 68 0 0.0 1.0 0.00 0.00 0.00 66 1018.5
20260831220545 68 0 0.0 1.0 0.00 0.00 0.00 65 1018.3
20260831220112 68 0 0.0 1.0 0.00 0.00 0.00 65 1018.5
20260831215546 69 0 0.0 2.0 0.00 0.00 0.00 66 1018.4
20260831215046 69 0 0.0 2.0 0.00 0.00 0.00 63 1018.4
20260831214604 69 95 0.0 1.0 0.00 0.00 0.00 62 1018.3
20260831214049 69 0 0.0 1.0 0.00 0.00 0.00 63 1018.3
20260831213545 69 0 0.0 1.0 0.00 0.00 0.00 58 1018.4
20260831213105 69 0 0.0 1.0 0.00 0.00 0.00 60 1018.4
20260831212545 69 88 0.0 1.0 0.00 0.00 0.00 61 1018.4
20260831212045 69 246 0.0 1.0 0.00 0.00 0.00 59 1018.6
20260831211609 70 0 0.0 1.0 0.00 0.00 0.00 60 1018.6
20260831211044 70 246 0.0 1.0 0.00 0.00 0.00 58 1018.5
20260831210544 71 0 0.0 1.0 0.00 0.00 0.00 55 1018.5
20260831210103 72 0 0.0 1.0 0.00 0.00 0.00 55 1018.4
20260831205545 72 0 0.0 2.0 0.00 0.00 0.00 52 1018.5
20260831205045 72 0 0.0 2.0 0.00 0.00 0.00 52 1018.5
20260831204606 73 0 0.0 2.0 0.00 0.00 0.00 51 1018.4
20260831204045 74 70 1.0 2.0 0.00 0.00 0.00 50 1018.4
20260831203545 75 351 0.0 3.0 0.00 0.00 0.00 46 1018.4
20260831203101 75 147 0.0 3.0 0.00 0.00 0.00 47 1018.6
20260831202545 75 76 0.0 3.0 0.00 0.00 0.00 46 1018.6
20260831202047 75 203 0.0 3.0 0.00 0.00 0.00 47 1018.5
20260831201610 76 117 1.0 2.0 0.00 0.00 0.00 41 1018.6
20260831201046 76 0 0.0 2.0 0.00 0.00 0.00 49 1018.6
20260831200545 76 0 0.0 3.0 0.00 0.00 0.00 51 1018.6
20260831200106 76 261 0.0 3.0 0.00 0.00 0.00 50 1018.7
20260831195548 76 323 1.0 3.0 0.00 0.00 0.00 47 1018.9
20260831195048 77 0 0.0 2.0 0.00 0.00 0.00 47 1018.9
20260831194600 77 267 0.0 2.0 0.00 0.00 0.00 49 1019.0
20260831194045 77 265 1.0 2.0 0.00 0.00 0.00 54 1019.0
20260831193544 77 249 0.0 2.0 0.00 0.00 0.00 50 1019.0
20260831193101 77 255 0.0 4.0 0.00 0.00 0.00 51 1019.0
20260831192544 77 286 0.0 4.0 0.00 0.00 0.00 50 1018.9
20260831192044 77 75 1.0 4.0 0.00 0.00 0.00 45 1019.0
20260831191559 77 226 0.0 4.0 0.00 0.00 0.00 46 1018.9
20260831191044 77 232 1.0 4.0 0.00 0.00 0.00 50 1019.0
20260831190545 77 244 1.0 4.0 0.00 0.00 0.00 50 1019.0
20260831190115 77 302 1.0 3.0 0.00 0.00 0.00 49 1018.9
20260831185545 77 256 0.0 5.0 0.00 0.00 0.00 55 1018.9
20260831185045 77 291 1.0 5.0 0.00 0.00 0.00 57 1019.0
20260831184600 78 283 1.0 4.0 0.00 0.00 0.00 59 1019.0
20260831184044 79 70 1.0 3.0 0.00 0.00 0.00 52 1019.0
20260831183545 79 265 1.0 3.0 0.00 0.00 0.00 56 1018.9
20260831183101 79 260 1.0 2.0 0.00 0.00 0.00 57 1019.0
20260831182544 79 264 0.0 2.0 0.00 0.00 0.00 54 1019.1
20260831182048 79 255 0.0 1.0 0.00 0.00 0.00 58 1019.1
20260831181600 77 264 0.0 1.0 0.00 0.00 0.00 59 1019.2
20260831181046 76 264 0.0 2.0 0.00 0.00 0.00 54 1019.4
20260831180545 77 264 0.0 2.0 0.00 0.00 0.00 52 1019.3
20260831180058 78 269 0.0 2.0 0.00 0.00 0.00 55 1019.3
20260831175545 77 251 0.0 2.0 0.00 0.00 0.00 59 1019.2
20260831175046 76 324 0.0 5.0 0.00 0.00 0.00 54 1019.3
20260831174601 75 0 0.0 5.0 0.00 0.00 0.00 60 1019.3
20260831174047 74 33 2.0 5.0 0.00 0.00 0.00 52 1019.4
20260831173547 75 7 0.0 1.0 0.00 0.00 0.00 61 1019.4
20260831173102 74 18 0.0 2.0 0.00 0.00 0.00 59 1019.3
20260831172548 72 19 0.0 2.0 0.00 0.00 0.00 59 1019.4
20260831172045 71 0 0.0 2.0 0.00 0.00 0.00 60 1019.6
20260831171558 71 0 0.0 1.0 0.00 0.00 0.00 66 1019.4
20260831171045 71 0 0.0 3.0 0.00 0.00 0.00 62 1019.5
20260831170545 72 0 0.0 3.0 0.00 0.00 0.00 59 1019.8
20260831170106 73 0 1.0 3.0 0.00 0.00 0.00 53 1019.7
20260831165544 74 82 0.0 2.0 0.00 0.00 0.00 58 1019.8
20260831165044 74 252 0.0 1.0 0.00 0.00 0.00 53 1019.7
20260831164611 74 283 0.0 2.0 0.00 0.00 0.00 58 1019.5
20260831164045 75 283 1.0 2.0 0.00 0.00 0.00 63 1019.6
20260831163545 74 228 0.0 3.0 0.00 0.00 0.00 58 1019.7
20260831163102 73 0 1.0 3.0 0.00 0.00 0.00 55 1019.9
20260831162552 73 274 0.0 2.0 0.00 0.00 0.00 62 1019.9
20260831162046 72 42 0.0 2.0 0.00 0.00 0.00 58 1020.0
20260831161557 72 0 0.0 2.0 0.00 0.00 0.00 57 1020.1
20260831161048 72 297 0.0 2.0 0.00 0.00 0.00 59 1020.2
20260831160547 72 200 0.0 4.0 0.00 0.00 0.00 57 1020.1
20260831155546 71 27 1.0 3.0 0.00 0.00 0.00 53 1020.2
20260831155047 70 311 0.0 2.0 0.00 0.00 0.00 69 1020.1
20260831154624 69 174 0.0 2.0 0.00 0.00 0.00 66 1020.1
20260831154044 68 248 0.0 2.0 0.00 0.00 0.00 68 1020.1
20260831153545 67 150 0.0 2.0 0.00 0.00 0.00 57 1020.2
20260831153058 66 0 0.0 2.0 0.00 0.00 0.00 70 1020.2
20260831152545 65 229 0.0 2.0 0.00 0.00 0.00 66 1020.2
20260831152045 65 0 0.0 2.0 0.00 0.00 0.00 70 1020.2
20260831151613 64 231 0.0 2.0 0.00 0.00 0.00 66 1020.1
20260831151047 64 101 0.0 2.0 0.00 0.00 0.00 71 1020.1
20260831150547 63 0 0.0 2.0 0.00 0.00 0.00 68 1020.0
20260831150100 63 114 0.0 1.0 0.00 0.00 0.00 74 1020.0
20260831145544 62 0 0.0 1.0 0.00 0.00 0.00 81 1019.9
20260831145045 62 0 0.0 1.0 0.00 0.00 0.00 79 1020.1
20260831144607 62 0 0.0 1.0 0.00 0.00 0.00 81 1020.1
20260831144045 61 0 0.0 1.0 0.00 0.00 0.00 81 1020.0
20260831143545 61 0 0.0 1.0 0.00 0.00 0.00 79 1020.1
20260831143108 61 0 0.0 1.0 0.00 0.00 0.00 78 1020.2
20260831142545 60 0 0.0 1.0 0.00 0.00 0.00 81 1020.2
20260831142044 60 0 0.0 0.0 0.00 0.00 0.00 86 1020.4
20260831141600 60 165 0.0 0.0 0.00 0.00 0.00 85 1020.4
20260831141045 60 0 0.0 1.0 0.00 0.00 0.00 87 1020.3
20260831140545 59 0 0.0 1.0 0.00 0.00 0.00 86 1020.3
20260831140058 59 0 0.0 0.0 0.00 0.00 0.00 88 1020.4
20260831135545 59 0 0.0 0.0 0.00 0.00 0.00 88 1020.4
20260831135045 59 0 0.0 1.0 0.00 0.00 0.00 89 1020.6
20260831134559 58 0 0.0 2.0 0.00 0.00 0.00 89 1020.5
20260831134047 58 0 0.0 2.0 0.00 0.00 0.00 90 1020.5
20260831133544 57 0 0.0 0.0 0.00 0.00 0.00 91 1020.5
20260831133101 57 0 0.0 0.0 0.00 0.00 0.00 92 1020.6
20260831132543 56 0 0.0 1.0 0.00 0.00 0.00 92 1020.6
20260831132045 56 0 0.0 1.0 0.00 0.00 0.00 92 1020.6
20260831131610 56 0 0.0 1.0 0.00 0.00 0.00 92 1020.6
20260831131042 56 0 0.0 1.0 0.00 0.00 0.00 92 1020.6
20260831130543 55 23 0.0 0.0 0.00 0.00 0.00 93 1020.7
20260831130129 55 0 0.0 0.0 0.00 0.00 0.00 94 1020.8
20260831125545 54 0 0.0 0.0 0.00 0.00 0.00 93 1020.7
20260831125045 54 0 0.0 0.0 0.00 0.00 0.00 93 1020.9
20260831124603 54 0 0.0 0.0 0.00 0.00 0.00 93 1021.1
20260831124043 53 0 0.0 0.0 0.00 0.00 0.00 94 1020.9
20260831123542 53 0 0.0 0.0 0.00 0.00 0.00 94 1020.9
20260831123101 53 0 0.0 0.0 0.00 0.00 0.00 94 1021.0
20260831122542 53 0 0.0 0.0 0.00 0.00 0.00 95 1020.9
20260831122045 53 0 0.0 0.0 0.00 0.00 0.00 95 1020.9
20260831121609 52 0 0.0 0.0 0.00 0.00 0.00 94 1020.8
20260831121045 52 0 0.0 0.0 0.00 0.00 0.00 94 1020.7
20260831120544 52 0 0.0 0.0 0.00 0.00 0.00 94 1020.7
20260831120105 52 0 0.0 0.0 0.00 0.00 0.00 93 1020.7
20260831115545 52 0 0.0 0.0 0.00 0.00 0.00 93 1020.7